Location: ????????
(41.1523°N, 22.8664°E)
Time: 10:28:15
(UTC+00:00)

Daily predictions for brighter satellites

Satellite Brightness Start Highest point End
(mag) Time Altitude Azimuth Time Altitude Azimuth Time Altitude Azimuth
NOAA 12 4.1 15:24:04 10° SSE 15:29:22 73° ENE 15:34:41 10° N
Cosmos 1939 Rocket 3.2 15:25:37 10° SSE 15:29:34 46° ENE 15:33:29 10° N
Meteor PRIRODA 3.5 15:26:36 10° SSE 15:30:14 82° ENE 15:33:52 10° N
Cosmos 44 3.8 15:29:18 10° NW 15:33:57 61° WSW 15:38:19 10° SSE
Cosmos 2034 Rocket 4.1 15:29:26 10° S 15:35:36 87° W 15:41:47 10° N
Cosmos 540 Rocket 3.5 15:34:14 10° S 15:39:13 58° ESE 15:44:14 10° NNE
AQUARIUS 4.4 15:36:02 10° SE 15:40:20 48° ENE 15:44:39 10° N
COSMOS 2406 3.3 15:36:46 10° SSW 15:42:29 72° ESE 15:48:13 10° NNE
ARGOS 4.3 15:38:32 10° ESE 15:42:32 22° ENE 15:46:31 10° NNE
Cosmos 1602 4.0 15:39:37 10° N 15:43:20 45° E 15:47:03 10° SSE
Cosmos 1833 Rocket 2.8 15:38:33 10° SSW 15:44:10 85° WNW 15:49:51 10° NNE
ATLAS CENTAUR R/B 3.5 15:38:30 10° SW 15:50:18 70° NW 15:54:56 10° NE
COSMO-SKYMED 1 3.7 15:47:07 10° NE 15:50:42 24° E 15:54:14 10° SSE
Cosmos 1782 3.0 15:48:15 10° S 15:52:07 51° E 15:56:00 10° NNE
Cosmos 468 Rocket 4.5 15:48:25 10° SSW 15:53:30 61° WNW 15:58:39 10° NNE
Cosmos 1634 Rocket 4.0 15:50:08 10° S 15:56:21 64° E 16:02:37 10° NNE
CZ-2C R/B 3.6 15:56:26 10° S 15:58:19 13° SSE 16:00:11 10° SE
COSMOS 2455 2.8 15:52:36 10° SSW 15:58:35 73° ESE 16:04:36 10° NNE
Cosmos 1633 Rocket 4.0 15:55:39 10° NNE 15:59:17 25° ENE 16:02:53 10° SE
Cosmos 1898 Rocket 3.5 15:54:53 10° NNW 16:00:09 88° WSW 16:05:21 10° SSE
PAYLOAD B 4.3 15:55:47 10° SSE 16:01:13 55° ENE 16:06:41 10° N
CZ-2D R/B 3.3 15:59:55 10° SSE 16:03:38 51° ENE 16:07:22 10° N
CZ-2C R/B 4.2 15:59:03 10° S 16:03:47 45° W 16:08:23 10° NNW
CZ-4B R/B 3.6 15:59:09 10° SE 16:04:09 39° ENE 16:09:05 10° N
Cosmos 2026 Rocket 3.9 15:58:58 10° N 16:05:07 72° E 16:11:08 10° SSE
Cosmos 1340 Rocket 4.3 16:01:53 10° NNW 16:05:44 40° W 16:09:33 10° SSW
CZ-2C R/B 3.0 16:01:08 10° NNE 16:05:59 39° E 16:10:48 10° SSE
Cosmos 2195 Rocket 4.5 16:02:24 10° N 16:08:36 90° SW 16:14:49 10° S
Cosmos 1151 Rocket 3.3 16:05:47 10° SSE 16:09:52 43° E 16:14:00 10° NNE
Meteor 2-14 Rocket 4.4 16:04:46 10° N 16:10:53 74° E 16:16:56 10° SSE
Cosmos 2360 4.2 16:05:30 10° NNW 16:11:16 89° WSW 16:16:58 10° SSE
Okean O Rocket 2.3 16:08:39 10° SE 16:12:36 32° ENE 16:16:35 10° N
Cosmos 1500 3.0 16:09:28 10° N 16:13:11 67° E 16:16:53 10° SSE
Lacrosse 5 rocket 3.1 16:12:17 10° NNW 16:14:42 15° NNE 16:14:59 15° NNE
Cosmos 2208 Rocket 4.5 16:12:15 10° S 16:17:15 41° ESE 16:21:06 17° NE
DEBRIS 4.3 16:15:34 10° SSE 16:17:08 16° ESE 16:17:08 16° ESE
USA 267 4.1 16:13:43 11° NE 16:19:33 43° NNW 16:25:37 10° W
Meteor 1-26 Rocket 4.4 16:14:25 10° S 16:20:22 83° W 16:26:27 10° N
H-2A R/B 1.9 16:16:16 10° SSE 16:21:27 75° ENE 16:26:31 10° N
GPS 2-04 Rocket1 4.0 16:20:53 10° WSW 16:24:40 35° S 16:27:26 16° SE
Cosmos 1666 Rocket 3.6 16:20:48 10° N 16:25:11 58° E 16:29:30 10° SSE
CZ-4C R/B 4.4 16:26:52 21° SE 16:26:52 21° SE 16:28:34 10° SSE
Cosmos 1328 Rocket 3.8 16:22:54 10° SSE 16:27:10 48° E 16:30:24 17° NNE
Cosmos 1470 Rocket 4.3 16:24:24 10° NNE 16:28:20 30° ENE 16:32:15 10° SE
PSLV R/B 4.3 16:28:36 10° S 16:32:13 57° W 16:35:53 10° NNW
Meteor 2-8 Rocket 4.5 16:26:22 10° S 16:32:21 57° E 16:38:22 10° NNE
USA 276 4.0 16:29:36 10° WNW 16:32:22 29° SW 16:35:06 10° SSE
Cosmos 841 Rocket 4.0 16:28:00 10° SSW 16:33:05 59° WNW 16:38:11 10° NNE
Meteor 2-21 Rocket 4.3 16:27:49 10° N 16:33:57 83° E 16:40:00 10° S
Landsat 5 3.5 16:32:08 28° NE 16:33:57 48° E 16:37:47 10° S
MOS 1-B 4.4 16:28:47 10° SSE 16:34:34 85° WSW 16:40:23 10° NNW
SKYMED 2 3.4 16:34:47 11° NNE 16:38:56 83° ESE 16:43:16 10° SSW
Cosmos 1937 Rocket 4.3 16:34:54 10° NNW 16:40:05 53° WSW 16:45:13 10° S
Cosmos 1666 2.4 16:38:57 10° N 16:42:40 83° E 16:46:23 10° S
SL-24 R/B - RUBIN 2 3.4 16:41:34 10° NW 16:46:02 87° WSW 16:49:59 12° SSE
Cosmos 2322 Rocket 3.6 16:43:13 10° N 16:45:58 20° NNE 16:45:58 20° NNE
Cosmos 1697 Rocket 4.1 16:44:19 10° NW 16:49:29 39° WSW 16:54:37 10° S
Cosmos 372 Rocket 4.3 16:46:09 10° NNW 16:51:21 67° WSW 16:56:32 10° S
USA 234 3.5 16:45:08 10° SE 16:51:40 70° SW 16:58:12 10° NW
Cosmos 1980 Rocket 2.4 16:48:22 10° NNW 16:54:01 72° WSW 16:59:36 10° SSE
Meteor 1-14 Rocket 4.5 16:49:02 10° NNW 16:54:52 76° W 17:00:47 10° S
SL-08 RB Rocket 3.6 16:50:32 10° SSE 16:55:06 64° ENE 16:59:41 10° N
Cosmos 2369 4.5 16:50:18 10° NNW 16:55:53 54° WSW 17:01:24 10° S
Cosmos 1812 4.1 16:55:35 10° SSW 16:59:11 39° WNW 17:02:43 11° N
Meteor 1-5 Rocket 4.4 16:53:52 10° NNW 16:59:51 78° W 17:05:43 10° S
CZ-4C R/B 2.9 16:53:47 10° NNW 17:01:14 78° NE 17:09:49 10° SE
deb Chang Zheng 4 4.0 16:58:09 10° S 17:02:23 60° WSW 17:06:41 10° NNW
SL-16 R/B 2.9 17:00:18 10° N 17:04:16 34° NNE 17:04:16 34° NNE
Cosmos 2082 Rocket 3.3 17:00:42 10° SW 17:06:03 41° WNW 17:10:43 13° N
ISS -2.4 17:02:54 10° NW 17:04:58 34° NW 17:04:58 34° NW
Cosmos 1515 Rocket 3.5 17:04:51 10° S 17:08:52 69° SSE 17:08:52 69° SSE
Cosmos 44 Rocket 3.9 17:10:51 10° NNW 17:14:24 43° N 17:14:24 43° N
Cosmos 2278 4.1 17:14:21 10° NNW 17:19:59 62° WSW 17:25:34 10° S
ARGOS 3.9 17:17:07 10° S 17:22:24 52° W 17:27:41 10° NNW
Meteor 1-27 Rocket 3.8 17:19:40 10° S 17:24:11 58° SSE 17:24:11 58° SSE
COSMO-SKYMED 1 4.4 17:23:24 12° NNW 17:26:49 29° WNW 17:30:34 10° SW
DMSP B5D2-2 3.9 17:29:23 87° W 17:29:23 87° W 17:34:36 10° SSW
Cosmos 2298 Rocket 4.2 17:24:31 10° NNW 17:28:50 59° N 17:28:50 59° N
IRAS Rocket 4.3 17:31:07 64° SSE 17:31:07 64° SSE 17:35:50 10° SSW
Cosmos 2266 Rocket 4.1 17:25:50 10° N 17:32:13 79° W 17:38:37 10° S
Cosmos 921 Rocket 3.9 17:29:10 10° SW 17:32:43 45° W 17:32:43 45° W
ATLAS 5 CENTAUR R/B 4.1 17:31:15 10° NW 17:33:08 19° NNW 17:33:08 19° NNW
GEOS 3 Rocket 4.2 17:37:58 46° NNW 17:37:58 46° NNW 17:41:38 10° NNW
CZ-2C R/B 3.5 17:33:40 10° SW 17:35:26 20° SSW 17:35:26 20° SSW
Cosmos 1818 3.8 17:34:17 10° NNW 17:38:50 62° NW 17:38:50 62° NW
Okean O Rocket 3.9 17:45:26 10° SSW 17:48:58 23° W 17:52:33 10° NW
Lacrosse 5 rocket 4.2 17:50:21 10° NW 17:50:36 12° NW 17:50:36 12° NW
Cosmos 2322 Rocket 4.5 18:26:33 10° NNW 18:27:49 17° NW 18:27:49 17° NW
